Warroad, MN

2:52 AM CDT on September 23, 2017 (GMT -0500)
Warroad International-Carlson

Weather History for KRRT - December, 2013

Change the Weather History Date:

Sunday, December 1, 2013

  Actual Average Record
Temperature  
Mean Temperature 19 °F -  
Max Temperature 21 °F 25 °F 50 °F (1962)
Min Temperature 15 °F 6 °F -24 °F (1978)
Degree Days  
Heating Degree Days 46    
Moisture  
Dew Point 16 °F    
Average Humidity 86    
Maximum Humidity 93    
Minimum Humidity 79    
Precipitation  
Precipitation 0.00 in - - ()
Sea Level Pressure  
Sea Level Pressure 30.08 in    
Wind  
Wind Speed 3 mph (SSE)    
Max Wind Speed 9 mph    
Max Gust Speed -    
Visibility 7 miles    
Events Snow    
Averages and records for this station are not official NWS values.
T = Trace of Precipitation, MM = Missing Value Source: NWS Daily Summary

Daily Weather History Graph

Daily Weather History Graph

Search for Another Location

Airport or City:

Trip Planner

Search our weather history database for the weather conditions in past years. The results will help you decide how hot, cold, wet, or windy it might be!

Date:

Astronomy

Dec. 01, 2013 Rise Set
Actual Time 7:54 AM CST 4:26 PM CST
Civil Twilight 7:17 AM CST 5:03 PM CST
Nautical Twilight 6:38 AM CST 5:42 PM CST
Astronomical Twilight 5:59 AM CST 6:20 PM CST
Moon 6:06 AM CST (12/1) 3:42 PM CST (12/1)
Length of Visible Light 9h 45m
Length of Day
8h 32m
Waning Crescent, 2% of the Moon is Illuminated
Dec 1
Waning Crescent
Dec 2
New
Dec 9
First Quarter
Dec 17
Full
Dec 25
Last Quarter

Hourly Weather History & Observations

Time (CST) Temp. Windchill Dew Point Humidity Pressure Visibility Wind Dir Wind Speed Gust Speed Precip Events Conditions
12:14 AM 19.4 °F 10.4 °F 15.8 °F 86% 30.18 in 4.0 mi NW 6.9 mph - N/A   Overcast
12:34 AM 19.4 °F 14.3 °F 15.8 °F 86% 30.18 in 4.0 mi NW 3.5 mph - N/A   Overcast
12:54 AM 19.4 °F 12.8 °F 15.8 °F 86% 30.18 in 4.0 mi WNW 4.6 mph - N/A   Overcast
1:14 AM 19.4 °F 14.3 °F 15.8 °F 86% 30.18 in 4.0 mi WNW 3.5 mph - N/A   Overcast
1:34 AM 19.4 °F - 15.8 °F 86% 30.17 in 5.0 mi Calm Calm - N/A   Overcast
1:54 AM 19.4 °F - 15.8 °F 86% 30.17 in 5.0 mi Calm Calm - N/A Snow Light Snow
2:14 AM 19.4 °F - 15.8 °F 86% 30.18 in 4.0 mi Calm Calm - N/A Snow Light Snow
2:34 AM 19.4 °F - 15.8 °F 86% 30.18 in 5.0 mi Calm Calm - N/A   Overcast
2:54 AM 19.4 °F - 15.8 °F 86% 30.18 in 5.0 mi Calm Calm - N/A Snow Light Snow
3:14 AM 19.4 °F - 15.8 °F 86% 30.18 in 5.0 mi Calm Calm - N/A   Overcast
3:34 AM 19.4 °F 14.3 °F 15.8 °F 86% 30.18 in 5.0 mi West 3.5 mph - N/A   Overcast
3:54 AM 19.4 °F - 15.8 °F 86% 30.18 in 5.0 mi Calm Calm - N/A   Overcast
4:14 AM 19.4 °F 12.8 °F 15.8 °F 86% 30.18 in 5.0 mi West 4.6 mph - N/A   Overcast
4:34 AM 19.4 °F - 15.8 °F 86% 30.18 in 5.0 mi Calm Calm - N/A   Overcast
4:54 AM 19.4 °F - 15.8 °F 86% 30.17 in 5.0 mi Calm Calm - N/A Snow Light Snow
5:14 AM 19.4 °F 14.3 °F 15.8 °F 86% 30.17 in 4.0 mi West 3.5 mph - N/A Snow Light Snow
5:34 AM 19.4 °F 14.3 °F 15.8 °F 86% 30.16 in 4.0 mi West 3.5 mph - N/A Snow Light Snow
5:54 AM 19.4 °F 14.3 °F 15.8 °F 86% 30.16 in 4.0 mi WSW 3.5 mph - N/A Snow Light Snow
6:14 AM 19.4 °F 12.8 °F 15.8 °F 86% 30.16 in 5.0 mi WSW 4.6 mph - N/A Snow Light Snow
6:34 AM 17.6 °F 12.3 °F 15.8 °F 93% 30.16 in 4.0 mi WSW 3.5 mph - N/A Snow Light Snow
6:54 AM 17.6 °F 12.3 °F 14.0 °F 86% 30.16 in 5.0 mi West 3.5 mph - N/A Snow Light Snow
7:14 AM 17.6 °F 10.7 °F 14.0 °F 86% 30.16 in 5.0 mi West 4.6 mph - N/A Snow Light Snow
7:34 AM 17.6 °F 10.7 °F 14.0 °F 86% 30.16 in 5.0 mi West 4.6 mph - N/A Snow Light Snow
7:54 AM 17.6 °F - 14.0 °F 86% 30.16 in 5.0 mi Calm Calm - N/A Snow Light Snow
8:14 AM 17.6 °F - 14.0 °F 86% 30.15 in 3.0 mi Calm Calm - N/A Snow Light Snow
8:34 AM 17.6 °F - 14.0 °F 86% 30.15 in 3.0 mi Calm Calm - N/A Snow Light Snow
8:54 AM 17.6 °F 12.3 °F 14.0 °F 86% 30.15 in 2.5 mi WSW 3.5 mph - N/A Snow Light Snow
9:14 AM 17.6 °F - 14.0 °F 86% 30.15 in 3.0 mi Calm Calm - N/A Snow Light Snow
9:34 AM 17.6 °F - 14.0 °F 86% 30.15 in 2.5 mi Calm Calm - N/A Snow Light Snow
9:54 AM 19.4 °F - 15.8 °F 86% 30.15 in 2.5 mi Calm Calm - N/A Snow Light Snow
10:14 AM 19.4 °F - 15.8 °F 86% 30.15 in 3.0 mi Calm Calm - N/A Snow Light Snow
10:34 AM 19.4 °F - 15.8 °F 86% 30.15 in 3.0 mi Calm Calm - N/A Snow Light Snow
10:53 AM 19.4 °F - 15.8 °F 86% 30.14 in 3.0 mi Calm Calm - N/A Snow Light Snow
11:14 AM 19.4 °F - 15.8 °F 86% 30.13 in 3.0 mi Calm Calm - N/A Snow Light Snow
11:34 AM 21.2 °F - 17.6 °F 86% 30.12 in 4.0 mi Calm Calm - N/A Snow Light Snow
11:53 AM 21.2 °F - 17.6 °F 86% 30.11 in 4.0 mi Calm Calm - N/A Snow Light Snow
12:14 PM 21.2 °F - 17.6 °F 86% 30.10 in 5.0 mi Calm Calm - N/A   Overcast
12:34 PM 21.2 °F - 17.6 °F 86% 30.09 in 5.0 mi Calm Calm - N/A   Overcast
12:54 PM 21.2 °F 13.6 °F 17.6 °F 86% 30.09 in 7.0 mi SW 5.8 mph - N/A   Overcast
1:14 PM 21.2 °F - 17.6 °F 86% 30.08 in 10.0 mi Calm Calm - N/A   Overcast
1:34 PM 21.2 °F - 17.6 °F 86% 30.07 in 10.0 mi Calm Calm - N/A   Overcast
1:54 PM 21.2 °F - 17.6 °F 86% 30.06 in 10.0 mi Calm Calm - N/A   Overcast
2:14 PM 21.2 °F 16.4 °F 17.6 °F 86% 30.05 in 10.0 mi SSW 3.5 mph - N/A   Overcast
2:34 PM 21.2 °F 16.4 °F 17.6 °F 86% 30.05 in 7.0 mi SSE 3.5 mph - N/A   Overcast
2:54 PM 21.2 °F - 17.6 °F 86% 30.04 in 10.0 mi Calm Calm - N/A   Overcast
3:14 PM 19.4 °F 12.8 °F 17.6 °F 93% 30.04 in 7.0 mi SSW 4.6 mph - N/A   Overcast
3:34 PM 19.4 °F 14.3 °F 17.6 °F 93% 30.04 in 10.0 mi South 3.5 mph - N/A   Overcast
3:54 PM 19.4 °F 12.8 °F 15.8 °F 86% 30.04 in 10.0 mi SSW 4.6 mph - N/A   Overcast
4:13 PM 19.4 °F 14.3 °F 15.8 °F 86% 30.03 in 10.0 mi SSW 3.5 mph - N/A   Overcast
4:34 PM 19.4 °F - 15.8 °F 86% 30.02 in 10.0 mi Calm Calm - N/A   Overcast
4:54 PM 19.4 °F - 15.8 °F 86% 30.02 in 10.0 mi Calm Calm - N/A   Overcast
5:13 PM 19.4 °F 12.8 °F 15.8 °F 86% 30.02 in 10.0 mi East 4.6 mph - N/A   Overcast
5:34 PM 19.4 °F 12.8 °F 15.8 °F 86% 30.01 in 10.0 mi NE 4.6 mph - N/A   Overcast
5:54 PM 19.4 °F 14.3 °F 15.8 °F 86% 30.01 in 10.0 mi ENE 3.5 mph - N/A   Overcast
6:13 PM 19.4 °F 14.3 °F 15.8 °F 86% 30.00 in 10.0 mi ENE 3.5 mph - N/A   Overcast
6:34 PM 19.4 °F 11.5 °F 15.8 °F 86% 30.00 in 10.0 mi East 5.8 mph - N/A   Overcast
6:54 PM 19.4 °F 8.6 °F 15.8 °F 86% 29.99 in 10.0 mi East 9.2 mph - N/A   Overcast
7:13 PM 19.4 °F 11.5 °F 15.8 °F 86% 29.99 in 10.0 mi ESE 5.8 mph - N/A   Overcast
7:34 PM 19.4 °F 10.4 °F 15.8 °F 86% 29.99 in 10.0 mi East 6.9 mph - N/A   Overcast
7:54 PM 19.4 °F 9.5 °F 15.8 °F 86% 29.98 in 10.0 mi East 8.1 mph - N/A   Overcast
8:14 PM 19.4 °F 11.5 °F 15.8 °F 86% 29.98 in 10.0 mi ESE 5.8 mph - N/A   Overcast
8:33 PM 19.4 °F 11.5 °F 15.8 °F 86% 29.98 in 10.0 mi ESE 5.8 mph - N/A   Overcast
8:54 PM 19.4 °F 10.4 °F 15.8 °F 86% 29.97 in 10.0 mi ESE 6.9 mph - N/A   Overcast
9:14 PM 19.4 °F 10.4 °F 15.8 °F 86% 29.97 in 10.0 mi ESE 6.9 mph - N/A   Overcast
9:33 PM 19.4 °F 10.4 °F 15.8 °F 86% 29.96 in 10.0 mi East 6.9 mph - N/A   Overcast
9:54 PM 19.4 °F 9.5 °F 15.8 °F 86% 29.96 in 10.0 mi East 8.1 mph - N/A   Overcast
10:14 PM 19.4 °F 11.5 °F 15.8 °F 86% 29.95 in 10.0 mi ESE 5.8 mph - N/A   Overcast
10:33 PM 19.4 °F 14.3 °F 15.8 °F 86% 29.95 in 10.0 mi SE 3.5 mph - N/A   Overcast
10:54 PM 17.6 °F - 15.8 °F 93% 29.95 in 10.0 mi Calm Calm - N/A   Overcast
11:14 PM 17.6 °F 12.3 °F 14.0 °F 86% 29.94 in 10.0 mi East 3.5 mph - N/A   Overcast
11:33 PM 17.6 °F 10.7 °F 12.2 °F 79% 29.94 in 10.0 mi East 4.6 mph - N/A   Overcast
11:54 PM 15.8 °F 7.2 °F 12.2 °F 86% 29.93 in 10.0 mi ENE 5.8 mph - N/A   Scattered Clouds